Location: Knowlton
(51.2333°N, 1.2667°E)
Time: 11:10:40
(UTC+00:00)

RS-15 - Visible Passes

Search period start: 01 December 2021 00:00
Search period end: 11 December 2021 00:00
Orbit: 1883 x 2161 km, 64.8° (Epoch: 30 November)

Date Brightness Start Highest point End Pass type
(mag) Time Alt. Az. Time Alt. Az. Time Alt. Az.
01 Dec 9.3 02:15:14 20° SE 02:21:01 30° ESE 02:30:35 10° NE visible
01 Dec 8.0 04:23:07 22° SW 04:31:47 85° SE 04:44:02 10° NE visible
01 Dec 8.4 06:34:13 10° W 06:45:37 50° NNW 06:57:32 10° NE visible
02 Dec 9.5 01:41:46 19° ESE 01:45:37 23° E 01:53:54 10° NE visible
02 Dec 8.1 03:49:37 33° SSW 03:55:48 73° ESE 04:07:52 10° NE visible
02 Dec 8.3 05:57:35 10° WSW 06:09:04 55° NNW 06:21:08 10° NE visible
03 Dec 9.7 01:08:03 16° ESE 01:10:21 17° E 01:16:46 10° ENE visible
03 Dec 8.3 03:15:53 43° S 03:19:56 60° ESE 03:31:41 10° NE visible
03 Dec 8.1 05:23:43 20° WSW 05:32:37 62° NW 05:44:48 10° NE visible
04 Dec 9.9 00:34:08 11° E 00:35:12 11° E 00:38:13 10° ENE visible
04 Dec 8.6 02:41:57 45° SE 02:44:11 49° ESE 02:55:29 10° NE visible
04 Dec 8.0 04:49:46 32° WSW 04:56:16 71° NW 05:08:33 10° NE visible
04 Dec 8.6 06:59:52 10° W 07:11:08 44° N 07:22:49 10° ENE visible
05 Dec 8.8 02:07:53 39° ESE 02:08:33 39° ESE 02:19:11 10° NE visible
05 Dec 7.9 04:15:42 47° SW 04:20:02 81° NW 04:32:21 10° NE visible
05 Dec 8.5 06:23:30 11° W 06:34:27 46° NNW 06:46:14 10° ENE visible
06 Dec 9.1 01:33:43 31° E 01:33:43 31° E 01:42:47 10° NE visible
06 Dec 7.9 03:41:30 65° SSW 03:43:55 87° SE 03:56:11 10° NE visible
06 Dec 8.4 05:49:18 20° W 05:57:49 50° NNW 06:09:43 10° NE visible
07 Dec 9.5 00:59:27 23° E 00:59:27 23° E 01:06:09 10° NE visible
07 Dec 8.0 03:07:14 73° SSE 03:07:54 75° ESE 03:20:00 10° NE visible
07 Dec 8.3 05:15:02 31° W 05:21:16 55° NNW 05:33:18 10° NE visible
08 Dec 9.7 00:25:06 16° ENE 00:25:06 16° ENE 00:29:06 10° ENE visible
08 Dec 8.3 02:32:54 61° E 02:32:54 61° E 02:43:50 10° NE visible
08 Dec 8.1 04:40:41 44° W 04:44:47 61° NNW 04:56:59 10° NE visible
08 Dec 8.6 06:48:47 10° WNW 07:00:06 43° N 07:11:45 10° ENE visible
08 Dec 10.0 23:50:43 10° ENE 23:50:43 10° ENE 23:50:57 10° ENE visible
09 Dec 8.7 01:58:29 46° E 01:58:29 46° E 02:07:38 10° NE visible
09 Dec 7.9 04:06:16 60° W 04:08:25 69° NW 04:20:43 10° NE visible
09 Dec 8.6 06:14:03 16° WNW 06:23:22 44° N 06:35:02 10° ENE visible
10 Dec 9.1 01:24:02 34° ENE 01:24:02 34° ENE 01:31:22 10° NE visible
10 Dec 7.9 03:31:48 79° WNW 03:32:10 79° NW 03:44:29 10° NE visible
10 Dec 8.5 05:39:35 25° WNW 05:46:40 46° NNW 05:58:25 10° ENE visible
